Perry, IA

10:13 PM CDT on April 27, 2017 (GMT -0500)
Perry Municipal

Weather History for KPRO - December, 2011

Change the Weather History Date:

Wednesday, December 21, 2011

  Actual Average Record
Temperature  
Mean Temperature 35 °F -  
Max Temperature 44 °F 27 °F 59 °F (1967)
Min Temperature 26 °F 9 °F -22 °F (1985)
Degree Days  
Heating Degree Days 30    
Moisture  
Dew Point 31 °F    
Average Humidity 90    
Maximum Humidity 100    
Minimum Humidity 69    
Precipitation  
Precipitation 0.00 in - - ()
Sea Level Pressure  
Sea Level Pressure 29.73 in    
Wind  
Wind Speed 6 mph (SW)    
Max Wind Speed 13 mph    
Max Gust Speed 17 mph    
Visibility 8 miles    
Events      
Averages and records for this station are not official NWS values.
T = Trace of Precipitation, MM = Missing Value Source: NWS Daily Summary

Daily Weather History Graph

Daily Weather History Graph

Search for Another Location

Airport or City:

Trip Planner

Search our weather history database for the weather conditions in past years. The results will help you decide how hot, cold, wet, or windy it might be!

Date:

Astronomy

Dec. 21, 2011 Rise Set
Actual Time 7:40 AM CST 4:48 PM CST
Civil Twilight 7:08 AM CST 5:20 PM CST
Nautical Twilight 6:33 AM CST 5:55 PM CST
Astronomical Twilight 5:59 AM CST 6:29 PM CST
Moon 4:13 AM CST (12/21) 2:09 PM CST (12/21)
Length of Visible Light 10h 11m
Length of Day
9h 08m
Waning Crescent, 12% of the Moon is Illuminated
Dec 21
Waning Crescent
Dec 24
New
Jan 1
First Quarter
Jan 9
Full
Jan 16
Last Quarter

Hourly Weather History & Observations

Time (CST) Temp. Windchill Dew Point Humidity Pressure Visibility Wind Dir Wind Speed Gust Speed Precip Events Conditions
12:15 AM 30.9 °F 27.5 °F 30.9 °F 100% 29.76 in 5.0 mi WSW 3.5 mph - N/A   Overcast
12:35 AM 31.1 °F 27.7 °F 31.1 °F 100% 29.76 in 7.0 mi West 3.5 mph - N/A   Overcast
12:55 AM 30.9 °F 26.2 °F 30.9 °F 100% 29.75 in 7.0 mi West 4.6 mph - N/A   Overcast
1:15 AM 30.9 °F 26.2 °F 30.9 °F 100% 29.75 in 7.0 mi WSW 4.6 mph - N/A   Overcast
1:35 AM 30.9 °F 25.2 °F 30.9 °F 100% 29.75 in 5.0 mi West 5.8 mph - N/A   Overcast
1:55 AM 30.9 °F 26.2 °F 30.9 °F 100% 29.74 in 7.0 mi West 4.6 mph - N/A   Overcast
2:15 AM 31.1 °F 27.7 °F 31.1 °F 100% 29.73 in 7.0 mi South 3.5 mph - N/A   Overcast
2:35 AM 30.9 °F - 30.9 °F 100% 29.73 in 5.0 mi Calm Calm - N/A   Overcast
2:55 AM 30.7 °F - 30.7 °F 100% 29.73 in 5.0 mi Calm Calm - N/A   Overcast
3:15 AM 30.2 °F - 30.2 °F 100% 29.73 in 5.0 mi Calm Calm - N/A   Overcast
3:35 AM 29.8 °F 26.3 °F 29.8 °F 100% 29.72 in 5.0 mi SSW 3.5 mph - N/A   Overcast
3:55 AM 29.8 °F 24.9 °F 29.8 °F 100% 29.71 in 5.0 mi SSW 4.6 mph - N/A   Overcast
4:15 AM 30.2 °F 25.4 °F 30.2 °F 100% 29.70 in 5.0 mi South 4.6 mph - N/A   Overcast
4:35 AM 30.2 °F 25.4 °F 30.2 °F 100% 29.70 in 5.0 mi South 4.6 mph - N/A   Overcast
4:55 AM 30.2 °F 24.3 °F 30.2 °F 100% 29.69 in 4.0 mi South 5.8 mph - N/A   Overcast
5:15 AM 30.2 °F 23.4 °F 30.2 °F 100% 29.69 in 5.0 mi South 6.9 mph - N/A   Mostly Cloudy
5:55 AM 28.2 °F 24.4 °F 28.2 °F 100% 29.69 in 5.0 mi SSE 3.5 mph - N/A   Scattered Clouds
6:15 AM 27.7 °F 21.3 °F 27.7 °F 100% 29.69 in 5.0 mi South 5.8 mph - N/A   Clear
6:35 AM 27.9 °F 20.6 °F 27.9 °F 100% 29.69 in 5.0 mi South 6.9 mph - N/A   Clear
6:55 AM 28.0 °F 20.8 °F 28.0 °F 100% 29.69 in 5.0 mi South 6.9 mph - N/A   Clear
7:15 AM 26.6 °F 20.0 °F 26.6 °F 100% 29.69 in 5.0 mi SSE 5.8 mph - N/A   Clear
7:35 AM 26.6 °F 19.1 °F 26.6 °F 100% 29.68 in 5.0 mi SSE 6.9 mph - N/A   Clear
7:55 AM 27.0 °F 18.7 °F 27.0 °F 100% 29.68 in 7.0 mi South 8.1 mph - N/A   Clear
8:15 AM 28.6 °F 19.9 °F 28.6 °F 100% 29.68 in 7.0 mi South 9.2 mph - N/A   Clear
8:35 AM 30.2 °F 21.9 °F 30.2 °F 100% 29.69 in 10.0 mi South 9.2 mph - N/A   Clear
8:55 AM 30.2 °F 22.6 °F 30.2 °F 100% 29.70 in 10.0 mi South 8.1 mph - N/A   Clear
9:15 AM 30.7 °F 22.0 °F 30.2 °F 98% 29.69 in 10.0 mi South 10.4 mph - N/A   Clear
9:35 AM 32.7 °F 25.0 °F 31.1 °F 94% 29.70 in 10.0 mi SSW 9.2 mph - N/A   Clear
9:55 AM 34.9 °F 27.7 °F 30.7 °F 85% 29.71 in 10.0 mi SSW 9.2 mph - N/A   Clear
10:15 AM 36.7 °F 28.4 °F 30.2 °F 77% 29.72 in 10.0 mi SSW 12.7 mph - N/A   Clear
10:35 AM 37.4 °F 29.8 °F 30.9 °F 77% 29.72 in 10.0 mi SSW 11.5 mph - N/A   Clear
10:55 AM 38.5 °F 31.6 °F 31.8 °F 77% 29.72 in 10.0 mi SSW 10.4 mph - N/A   Clear
11:15 AM 40.1 °F 34.1 °F 32.2 °F 73% 29.72 in 10.0 mi SW 9.2 mph - N/A   Clear
11:35 AM 40.5 °F 33.6 °F 32.0 °F 72% 29.71 in 10.0 mi SW 11.5 mph - N/A   Clear
11:55 AM 41.2 °F 35.0 °F 32.5 °F 71% 29.70 in 10.0 mi SW 10.4 mph - N/A   Clear
12:15 PM 41.5 °F 35.4 °F 32.9 °F 71% 29.69 in 10.0 mi WSW 10.4 mph - N/A   Clear
12:35 PM 42.3 °F 36.8 °F 33.3 °F 70% 29.69 in 10.0 mi SW 9.2 mph - N/A   Clear
12:55 PM 43.0 °F 37.7 °F 33.8 °F 70% 29.69 in 10.0 mi SW 9.2 mph - N/A   Clear
1:15 PM 43.7 °F 38.1 °F 34.0 °F 69% 29.69 in 10.0 mi SW 10.4 mph - N/A   Clear
1:35 PM 44.2 °F 38.8 °F 34.5 °F 69% 29.69 in 10.0 mi SW 10.4 mph - N/A   Clear
1:55 PM 44.2 °F 38.8 °F 34.5 °F 69% 29.69 in 10.0 mi WSW 10.4 mph 16.1 mph N/A   Clear
2:15 PM 43.7 °F 38.6 °F 34.0 °F 69% 29.69 in 10.0 mi WSW 9.2 mph - N/A   Clear
2:35 PM 43.7 °F 38.6 °F 34.2 °F 69% 29.70 in 10.0 mi WSW 9.2 mph - N/A   Clear
2:55 PM 43.7 °F 38.1 °F 34.7 °F 71% 29.70 in 10.0 mi WSW 10.4 mph - N/A   Clear
3:15 PM 41.0 °F 34.7 °F 34.3 °F 77% 29.71 in 10.0 mi West 10.4 mph - N/A   Clear
3:35 PM 42.3 °F 36.8 °F 34.7 °F 75% 29.73 in 10.0 mi West 9.2 mph - N/A   Clear
3:55 PM 39.4 °F 33.8 °F 34.0 °F 81% 29.73 in 10.0 mi WSW 8.1 mph - N/A   Clear
4:15 PM 36.5 °F 29.7 °F 33.4 °F 89% 29.74 in 10.0 mi WSW 9.2 mph - N/A   Clear
4:35 PM 35.6 °F 29.9 °F 32.9 °F 90% 29.75 in 10.0 mi WSW 6.9 mph - N/A   Clear
5:15 PM 34.7 °F 28.1 °F 32.5 °F 92% 29.77 in 10.0 mi WSW 8.1 mph - N/A   Clear
5:35 PM 33.3 °F 27.1 °F 32.2 °F 96% 29.78 in 10.0 mi West 6.9 mph - N/A   Clear
5:55 PM 32.9 °F 27.5 °F 32.5 °F 99% 29.79 in 10.0 mi West 5.8 mph - N/A   Clear
6:15 PM 32.5 °F 28.1 °F 32.5 °F 100% 29.79 in 10.0 mi WNW 4.6 mph - N/A   Clear
6:35 PM 33.4 °F 29.1 °F 32.9 °F 98% 29.80 in 10.0 mi WNW 4.6 mph - N/A   Clear
6:55 PM 34.2 °F 27.5 °F 32.9 °F 95% 29.81 in 10.0 mi NW 8.1 mph - N/A   Clear
7:15 PM 34.7 °F 28.8 °F 32.7 °F 92% 29.82 in 10.0 mi NW 6.9 mph - N/A   Clear
7:35 PM 35.1 °F 27.9 °F 32.4 °F 90% 29.83 in 10.0 mi NNW 9.2 mph - N/A   Clear
7:55 PM 34.7 °F 27.5 °F 32.2 °F 91% 29.84 in 10.0 mi NNW 9.2 mph - N/A   Scattered Clouds
8:15 PM 34.3 °F 27.0 °F 32.0 °F 91% 29.85 in 10.0 mi NNW 9.2 mph - N/A   Scattered Clouds
8:35 PM 34.3 °F 25.5 °F 32.0 °F 91% 29.86 in 10.0 mi NNW 12.7 mph 17.3 mph N/A   Clear
8:55 PM 33.8 °F 25.3 °F 31.6 °F 92% 29.87 in 10.0 mi NNW 11.5 mph - N/A   Clear
9:35 PM 32.5 °F 22.7 °F 29.8 °F 90% 29.91 in 10.0 mi North 13.8 mph - N/A   Scattered Clouds
9:55 PM 32.2 °F 22.3 °F 29.8 °F 91% 29.91 in 10.0 mi North 13.8 mph - N/A   Mostly Cloudy
10:15 PM 32.0 °F 20.8 °F 29.8 °F 92% 29.92 in 10.0 mi North 17.3 mph - N/A   Overcast
10:35 PM 32.0 °F 23.6 °F 30.2 °F 93% 29.94 in 10.0 mi North 10.4 mph - N/A   Overcast
10:55 PM 32.0 °F 23.6 °F 30.6 °F 94% 29.94 in 10.0 mi North 10.4 mph - N/A   Overcast
11:15 PM 32.0 °F 24.2 °F 31.1 °F 96% 29.96 in 10.0 mi North 9.2 mph - N/A   Overcast
11:35 PM 32.0 °F 24.2 °F 31.6 °F 99% 29.97 in 10.0 mi North 9.2 mph - N/A   Overcast
11:55 PM 32.2 °F 23.8 °F 32.0 °F 99% 29.99 in 10.0 mi North 10.4 mph - N/A   Overcast